Regional Weather Roundup
Issued by NWS

Home | Current Version | Previous Version | Text Only | Print | Product List | Glossary On
Versions: 1 2 3 4 5 6 7 8 9 10 11 12 13 14 15 16 17 18 19 20 21 22 23 24 25 26 27 28 29 30 31 32 33 34 35 36 37 38 39 40 41 42 43 44 45 46 47 48 49 50
000
ASCA42 TJSJ 010710
RWRPR
PUERTO RICO/U.S. VIRGIN ISLANDS HOURLY WEATHER ROUNDUP
NATIONAL WEATHER SERVICE SAN JUAN PR
300 AM AST WED JUL 01 2015

PRZ001-004-010800-
PUERTO RICO

CITY           SKY/WX    TMP DP  RH WIND       PRES   REMARKS
SAN JUAN LMM   MOCLDY    79  75  89 E12G23    30.09F
PONCE          PTCLDY    79  72  78 NE6       30.04
CEIBA          LGT RAIN  81  75  83 NE6       30.10F
$$

PRZ006-007-010800-
U.S. VIRGIN ISLANDS

CITY           SKY/WX    TMP DP  RH WIND       PRES   REMARKS
CHARLOTTE AMA  CLOUDY    81  73  78 E16       30.08F
CHRISTIANSTED  LGT RAIN  81  73  78 E13       30.08F
$$

HOURLY WEATHER ROUNDUP FOR THE NEWS MEDIA

CITY           SKY/WX    TMP DP  RH WIND       PRES   REMARKS
ORLANDO        CLOUDY    80  74  81 S9        30.11S
NEW YORK       CLOUDY    73  69  87 S14       29.80F
NEWARK         CLOUDY    74  71  91 CALM      29.79S
CHICAGO        CLOUDY    57  51  80 N7        29.93R
HARTFORD       PTCLDY    66  63  90 E6        29.89F
BOSTON         MOCLDY    64  62  93 SE5       29.90F
DALLAS         PTCLDY    79  68  69 S5        30.00S
PHILADELPHIA   LGT RAIN  72  66  81 W18G30    29.81
LOS ANGELES    PTCLDY    67  63  87 W12       29.87R
WASHINGTON DC  CLOUDY    66  65  96 S3        29.82F



USA.gov is the U.S. government's official web portal to all federal, state and local government web resources and services.